Flag for Estonia Weather past 2 weeks in Tallinn, Estonia

Now
55 °F

Passing clouds.


Feels Like: 53 °F
Forecast: 54 / 58 °F
Wind: 8 mph from East

Location: Tallinn

Current Time: Sep 2, 2015 at 12:14:56 AM

Latest Report: Sep 1, 2015 at 11:50 PM


Visibility: N/A

Pressure: 29.86 "Hg

Humidity: 88%

Dew point: 52 °F

Location of TallinnLocation

Historic Weather in Tallinn — Graph

°F

Tallinn temperature yesterday

Maximum temperature yesterday: 61 °F (at 12:20 PM)
Minimum temperature yesterday: 50 °F (at 2:20 AM)
Average temperature yesterday: 57 °F

Past Weeks' High & Low Weather Summary

 TemperatureHumidityPressure
High82 °F (Aug 25, 2:50 PM)100% (Aug 21, 1:50 AM)30.45 "Hg (Aug 21, 1:50 AM)
Low43 °F (Aug 19, 5:50 AM)33% (Aug 20, 1:50 PM)29.65 "Hg (Aug 28, 10:50 AM)
Average61 °F78%30.13 "Hg
* Reported Aug 17 10:20 PM — Sep 1 10:50 PM, Tallinn, Weather by CustomWeather, © 2015

Note: Actual official high and low records may vary slightly from our data, if they occured in-between our weather recording intervals... More about our weather records

Advertising

Tallinn weather history for previous 24 hours

 ConditionsComfort  
Time TempWeatherWind HumidityBarometerVisibility
10:50 PM
Tue, Sep 1
55 °FClear.8 mph88%29.89 "Hg10 mi
10:20 PM55 °FClear.8 mph88%29.89 "Hg10 mi
9:50 PM55 °FPassing clouds.6 mph88%29.89 "HgN/A
9:20 PM55 °FSprinkles. Passing clouds.9 mph88%29.89 "HgN/A
8:50 PM57 °FPassing clouds.8 mph82%29.89 "HgN/A
8:20 PM57 °FPassing clouds.8 mph82%29.89 "HgN/A
7:50 PM57 °FSunny.7 mph88%29.89 "Hg10 mi
7:20 PM57 °FSunny.8 mph88%29.89 "Hg10 mi
6:50 PM59 °FSprinkles. Passing clouds.8 mph82%29.89 "HgN/A
6:20 PM59 °FSunny.9 mph77%29.92 "Hg10 mi
5:50 PM61 °FSunny.8 mph72%29.92 "Hg10 mi
5:20 PM61 °FSunny.7 mph77%29.89 "Hg10 mi
4:50 PM59 °FSunny.8 mph77%29.92 "Hg10 mi
4:20 PM61 °FSunny.7 mph77%29.92 "Hg10 mi
3:50 PM61 °FSunny.6 mph83%29.92 "Hg10 mi
3:20 PM61 °FSprinkles. Passing clouds.5 mph83%29.92 "HgN/A
2:50 PM61 °FSprinkles. Passing clouds.7 mph83%29.92 "HgN/A
2:20 PM61 °FSprinkles. Passing clouds.7 mph83%29.92 "HgN/A
1:50 PM61 °FSunny.5 mph88%29.92 "Hg10 mi
1:20 PM61 °FPassing clouds.5 mph88%29.95 "HgN/A
12:50 PM61 °FScattered clouds.3 mph83%29.95 "HgN/A
12:20 PM61 °FPassing clouds.3 mph83%29.95 "HgN/A
11:50 AM59 °FScattered clouds.5 mph88%29.95 "HgN/A
11:20 AM59 °FPassing clouds.5 mph88%29.95 "HgN/A
10:50 AM59 °FScattered clouds.5 mph88%29.95 "HgN/A
10:20 AM59 °FScattered clouds.5 mph88%29.95 "HgN/A
9:50 AM57 °FScattered clouds.5 mph94%29.95 "HgN/A
9:20 AM57 °FSunny.3 mph94%29.95 "Hg10 mi
8:50 AM55 °FSunny.3 mph100%29.95 "Hg10 mi
8:20 AM54 °FSunny.3 mph100%29.95 "Hg10 mi
7:50 AM54 °FSunny.5 mph100%29.95 "Hg10 mi
6:20 AM54 °FLight fog.3 mph94%29.98 "HgN/A
5:50 AM52 °FClear.No wind100%29.98 "Hg10 mi
5:20 AM52 °FClear.No wind100%29.98 "Hg10 mi
4:50 AM52 °FClear.No wind100%30.01 "Hg10 mi
4:20 AM52 °FClear.No wind100%30.01 "Hg10 mi
3:50 AM54 °FClear.No wind94%30.01 "Hg10 mi
3:20 AM54 °FClear.No wind94%30.01 "Hg10 mi
2:50 AM52 °FLight fog.2 mph100%30.01 "HgN/A
2:20 AM50 °FLight fog.No wind100%30.01 "HgN/A
1:50 AM54 °FLight fog.No wind94%30.04 "HgN/A
1:20 AM54 °FLight fog.No wind94%30.04 "HgN/A
12:20 AM54 °FClear.3 mph100%30.04 "Hg10 mi
Weather by CustomWeather, © 2015

See weather overviewHow to use our weather pages